Torna al catalogo

OPS 3674

VELA 4

AttivoMilitareHEO
NORAD 837·PAYLOAD·🇺🇸 United States

Lanciato Jul 17, 1964 da Cape Canaveral Space Force Station

Loading…

Prossimi Passaggi (prossime 24 ore)

TLE

AggiornatoSource: Space-Track

Epoca: Sep 8, 2026, 23:29 UTC

1   837U 64040B   26251.97856733 -.00000379  00000-0  00000+0 0  9995
2   837  48.4640 118.3473 6482601 256.8326   0.5778  0.24005192 54922

Traccia OPS 3674 in tempo reale con AllMySat

Download on the App Store